Fort Myers, FL

7:12 AM EDT on September 25, 2017 (GMT -0400)
Page

Weather History for KFMY - September, 2012

Change the Weather History Date:

Monday, September 3, 2012

  Actual Average Record
Temperature  
Mean Temperature 83 °F 83 °F  
Max Temperature 92 °F 91 °F 98 °F (1912)
Min Temperature 73 °F 75 °F 70 °F (1934)
Degree Days  
Heating Degree Days 0 0  
Month to date heating degree days 0 0  
Since 1 July heating degree days 0 0  
Cooling Degree Days 18 18  
Month to date cooling degree days 57 54  
Year to date cooling degree days 3206 2778  
Growing Degree Days 32 (Base 50)    
Moisture  
Dew Point 69 °F    
Average Humidity 67    
Maximum Humidity 87    
Minimum Humidity 43    
Precipitation  
Precipitation 0.00 in 0.33 in 4.58 in (1935)
Month to date precipitation 0.00 0.99  
Year to date precipitation 35.80 42.06  
Sea Level Pressure  
Sea Level Pressure 30.02 in    
Wind  
Wind Speed 4 mph (NNE)    
Max Wind Speed 12 mph    
Max Gust Speed 15 mph    
Visibility 10 miles    
Events      
T = Trace of Precipitation, MM = Missing Value Source: NWS Daily Summary

Daily Weather History Graph

Daily Weather History Graph

Search for Another Location

Airport or City:

Trip Planner

Search our weather history database for the weather conditions in past years. The results will help you decide how hot, cold, wet, or windy it might be!

Date:

Astronomy

Sep. 03, 2012 Rise Set
Actual Time 7:08 AM EDT 7:44 PM EDT
Civil Twilight 6:44 AM EDT 8:08 PM EDT
Nautical Twilight 6:17 AM EDT 8:35 PM EDT
Astronomical Twilight 5:49 AM EDT 9:03 PM EDT
Moon 9:29 PM EDT (9/3) 9:50 AM EDT (9/3)
Length of Visible Light 13h 23m
Length of Day
12h 36m
Waning Gibbous, 90% of the Moon is Illuminated
Sep 3
Waning Gibbous
Sep 8
Last Quarter
Sep 15
New
Sep 22
First Quarter
Sep 29
Full

Hourly Weather History & Observations

Time (EDT) Temp. Heat Index Dew Point Humidity Pressure Visibility Wind Dir Wind Speed Gust Speed Precip Events Conditions
12:53 AM 78.1 °F - 70.0 °F 76% 30.03 in 10.0 mi East 4.6 mph - N/A   Clear
1:53 AM 77.0 °F - 70.0 °F 79% 30.02 in 10.0 mi East 3.5 mph - N/A   Clear
2:53 AM 75.9 °F - 70.0 °F 82% 30.01 in 10.0 mi Calm Calm - N/A   Clear
3:53 AM 75.0 °F - 71.1 °F 87% 30.00 in 10.0 mi Calm Calm - N/A   Clear
4:53 AM 73.9 °F - 70.0 °F 87% 30.00 in 10.0 mi Calm Calm - N/A   Clear
5:53 AM 73.9 °F - 69.1 °F 85% 30.01 in 10.0 mi Calm Calm - N/A   Clear
6:53 AM 73.9 °F - 70.0 °F 87% 30.03 in 10.0 mi ENE 3.5 mph - N/A   Clear
7:53 AM 75.0 °F - 71.1 °F 87% 30.04 in 10.0 mi ENE 5.8 mph - N/A   Clear
8:53 AM 78.1 °F - 71.1 °F 79% 30.05 in 10.0 mi ENE 5.8 mph - N/A   Clear
9:53 AM 82.0 °F 86.3 °F 71.1 °F 69% 30.06 in 10.0 mi East 5.8 mph - N/A   Clear
10:53 AM 84.0 °F 87.8 °F 69.1 °F 61% 30.06 in 10.0 mi SE 4.6 mph - N/A   Partly Cloudy
11:53 AM 87.1 °F 92.0 °F 70.0 °F 57% 30.06 in 10.0 mi Variable 4.6 mph - N/A   Scattered Clouds
12:53 PM 87.1 °F 91.3 °F 69.1 °F 55% 30.04 in 10.0 mi Variable 3.5 mph - N/A   Partly Cloudy
1:53 PM 88.0 °F 92.9 °F 70.0 °F 55% 30.03 in 10.0 mi Variable 3.5 mph - N/A   Overcast
2:53 PM 89.1 °F 92.1 °F 66.9 °F 48% 30.01 in 10.0 mi Calm Calm - N/A   Mostly Cloudy
3:53 PM 89.1 °F 91.3 °F 66.0 °F 46% 29.99 in 10.0 mi Calm Calm - N/A   Scattered Clouds
4:53 PM 91.0 °F 94.3 °F 66.9 °F 45% 29.97 in 10.0 mi NW 6.9 mph - N/A   Clear
5:53 PM 90.0 °F 92.4 °F 66.0 °F 45% 29.96 in 10.0 mi NNW 9.2 mph - N/A   Clear
6:53 PM 88.0 °F 88.4 °F 62.1 °F 42% 29.96 in 10.0 mi NW 9.2 mph - N/A   Clear
7:53 PM 84.9 °F 87.6 °F 66.9 °F 55% 29.98 in 10.0 mi NW 9.2 mph - N/A   Clear
8:53 PM 82.9 °F 87.0 °F 70.0 °F 65% 30.00 in 10.0 mi North 6.9 mph - N/A   Clear
9:53 PM 82.9 °F 87.5 °F 71.1 °F 67% 30.01 in 10.0 mi Calm Calm - N/A   Mostly Cloudy
10:53 PM 82.9 °F 87.5 °F 71.1 °F 67% 30.02 in 10.0 mi North 5.8 mph - N/A   Mostly Cloudy
11:53 PM 79.0 °F - 73.9 °F 84% 30.02 in 10.0 mi Calm Calm - N/A   Clear